#timestamp,LO_Frequency,Hit,StdDev 
1698368415.6,286047005.8,N
1698368435.4,286047005.6,Y
1698368455.2,286047001.0,P
1698368475.1,286046998.7,N
1698368476.0,286046998.7,N
1698368495.8,286046999.3,N
1698368515.7,286046999.1,N
1698368535.5,286046999.2,N
1698368555.3,286046999.6,N
1698368575.2,286046998.7,N
1698368595.0,286046999.3,N
1698368595.9,286046999.3,N
1698368615.7,286046999.5,N
1698368635.6,286046999.0,N
1698368655.4,286046996.8,N
1698368675.3,286046996.8,N
1698368695.1,286046999.6,N
1698368715.8,286046996.6,N
1698368735.7,286046996.6,N
1698368755.5,286046999.5,N
1698368775.3,286046999.6,N
1698368795.2,286046996.7,N
1698368815.0,286046999.6,N
1698368815.9,286046999.6,N
1698368835.8,286046996.8,N
1698368855.6,286046996.8,N
1698368875.4,286046999.2,N
1698368895.3,286046996.8,N
1698368915.1,286046999.5,N
1698368935.9,286046999.6,N
1698368955.7,286046997.0,N
1698368975.5,286046997.1,N
1698368995.4,286046997.0,N
1698369015.2,286046996.6,N
1698369035.0,286046999.6,N
1698369035.9,286046999.6,N
1698369055.8,286046996.7,N
1698369075.6,286046997.9,N
1698369095.5,286046999.6,N
1698369115.3,286046997.2,N
1698369135.1,286046997.6,N
1698369155.9,286046995.5,Y
1698369175.7,286046997.3,P
1698369195.5,286046999.5,N
1698369215.4,286046996.8,P
1698369235.2,286046996.9,Y
1698369255.1,286046998.9,P
1698369256.0,286046998.9,N
1698369275.8,286046999.1,N
1698369295.6,286046999.6,N
1698369315.5,286046997.2,Y
1698369335.3,286046999.0,P
1698369355.2,286046998.3,P
1698369375.9,286046998.1,P
1698369395.7,286046998.8,Y
1698369415.6,286047000.0,P
1698369435.4,286047000.1,N
1698369455.2,286047000.3,N
1698369475.1,286047002.6,Y
1698369476.0,286047002.6,P
1698369495.8,286047001.9,N
1698369515.7,286047001.6,N
1698369535.5,286047000.1,N
1698369555.3,286047002.4,N
1698369575.2,286046999.7,N
1698369595.0,286047000.0,N
1698369595.9,286047000.0,N
1698369615.8,286047001.0,N
1698369635.6,286047000.3,N
1698369655.4,286047002.5,N
1698369675.3,286047001.4,N
1698369695.1,286047001.6,N
1698369715.8,286047002.6,N
1698369735.7,286047002.1,N
1698369755.5,286047001.3,N
1698369775.4,286047004.3,Y
1698369795.2,286047000.2,P
1698369815.0,286046999.7,N
1698369846.0,286047000.6,E
1698369855.9,286047001.2,N
1698369875.7,286046998.2,P
1698369895.6,286047000.8,N
1698369915.4,286047001.1,N
1698369935.2,286047000.7,N
1698369955.1,286047001.0,N
1698369956.0,286047001.0,N
1698369975.8,286047000.8,N
1698369995.7,286047000.3,N
1698370015.5,286047002.8,Y
1698370035.3,286047000.4,P
1698370055.2,286047000.3,P
1698370075.0,286047000.6,P
1698370075.9,286047000.6,Y
1698370095.7,286046998.6,P
1698370115.6,286047000.8,N
1698370135.4,286046999.9,N
1698370155.3,286047000.5,N
1698370175.1,286047002.7,Y
1698370195.8,286047002.7,P
1698370215.7,286047001.5,N
1698370235.5,286047001.9,N
1698370255.4,286047002.0,N
1698370275.2,286047002.1,N
1698370295.0,286046999.8,N
1698370295.9,286046999.8,N
1698370315.8,286047000.3,N
1698370335.6,286047000.5,N
1698370355.4,286047000.2,N
1698370375.3,286047000.2,N
1698370395.1,286047000.4,N
1698370415.9,286047001.0,N
1698370435.7,286046998.3,N
1698370455.5,286046998.1,N
1698370475.4,286047000.9,N
1698370495.2,286046998.1,N
1698370515.0,286046998.5,N
1698370515.9,286046998.5,N
1698370535.8,286047000.8,N
1698370555.6,286047000.6,N
1698370575.5,286047000.4,N
1698370595.3,286046998.3,N
1698370615.1,286047000.7,N
1698370635.9,286047001.2,N
1698370655.7,286047000.9,N
1698370675.5,286047000.5,N
1698370695.4,286047000.1,N
1698370715.2,286047002.3,N
1698370735.1,286047002.4,N
1698370736.0,286047002.4,N
1698370755.8,286046999.7,N
1698370775.6,286047000.4,N
1698370795.5,286047000.1,N
1698370815.3,286047000.2,N
1698370835.2,286046999.9,N
1698370855.9,286047000.4,N
1698370875.7,286046999.8,N
1698370895.6,286047000.1,N
1698370915.4,286047000.4,N
1698370935.2,286047001.0,N
1698370955.1,286046998.5,N
1698370956.0,286046998.5,N
1698370975.8,286046999.2,N
1698370995.7,286046998.4,N
1698371015.5,286046998.4,N
1698371035.3,286046998.9,N
1698371055.2,286046998.3,N
1698371075.0,286046999.0,N
1698371075.9,286046999.0,N
1698371095.8,286046998.9,N
1698371115.6,286046998.8,N
1698371135.4,286046998.7,N
1698371155.3,286046998.7,N
1698371175.1,286046998.7,N
1698371195.8,286046998.8,N
1698371215.7,286047001.1,N
1698371235.5,286047000.4,N
1698371255.4,286047000.1,N
1698371275.2,286046999.8,N
1698371295.0,286047002.3,N
1698371295.9,286047002.3,N
1698371315.8,286047002.4,N
1698371335.6,286047002.4,N
1698371355.4,286047002.8,N
1698371375.3,286047002.7,N
1698371395.1,286047000.9,N
1698371415.9,286046999.7,N
1698371435.7,286047000.5,N
1698371455.5,286047000.0,N
1698371505.4,286047001.0,E
1698371515.3,286047000.8,N
1698371535.2,286047001.0,P
1698371555.9,286047001.0,P
1698371575.7,286047000.3,N
1698371595.6,286046998.4,Y
1698371615.4,286046996.5,P
1698371635.3,286046996.8,N
1698371655.1,286046997.0,N
1698371656.0,286046997.0,N
1698371675.8,286046997.4,N
1698371695.7,286046997.2,N
1698371715.5,286046996.7,N
1698371735.3,286046997.6,N
1698371755.2,286046997.3,N
1698371775.0,286046996.9,N
1698371775.9,286046996.9,N
1698371795.8,286046996.5,Y
1698371815.6,286046999.7,P
1698371835.4,286047000.1,N
1698371855.3,286047000.4,N
1698371875.1,286047000.4,N
1698371895.8,286047000.2,N
1698371915.7,286047000.2,N
1698371935.5,286047002.8,N
1698371955.4,286047001.9,N
1698371975.2,286047001.9,N
1698371995.0,286047001.8,N
1698371995.9,286047001.8,N
